Regional Weather Roundup
Issued by NWS

Home | Current Version | Previous Version | Text Only | Print | Product List | Glossary Off
Versions: 1 2 3 4 5 6 7 8 9 10 11 12 13 14 15 16 17 18 19 20 21 22 23 24 25 26 27 28 29 30 31 32 33 34 35 36 37 38 39 40 41 42 43 44 45 46 47 48 49 50

135
ASUS43 KIND 211309
RWRIN

WEATHER ROUNDUP FOR INDIANA
NATIONAL WEATHER SERVICE INDIANAPOLIS IN
800 AM EST TUE FEB 21 2017

NOTE: "FAIR" INDICATES FEW OR NO CLOUDS BELOW 12,000 FEET WITH NO
SIGNIFICANT WEATHER AND/OR OBSTRUCTIONS TO VISIBILITY.

* - STATION DOES NOT REPORT WEATHER SUCH AS PRECIPITATION OR FOG.

+ - STATION NOT QUALITY CONTROLLED BY THE NATIONAL WEATHER SERVICE.
    USE DATA WITH CAUTION...ESPECIALLY DEWPOINT AND RELATIVE
    HUMIDITY OBSERVATIONS.

INZ001>003-010>013-019-020-211400-
NORTHWEST INDIANA

CITY           SKY/WX    TMP DP  RH WIND       PRES   REMARKS
GARY /AIRPORT/ LGT RAIN  55  50  82 S8        29.95R
KNOX *+        CLOUDY    52  32  46 S3        29.96S
LA PORTE +     CLOUDY    51  48  88 CALM      29.96S
MICHIGAN CITY+ RAIN      52  50  93 S6        29.96R
MONTICELLO +   DRIZZLE   51  47  87 CALM      29.96R
RENSSELAER +   CLOUDY    52  48  87 CALM      29.97R
VALPARAISO     CLOUDY    53  49  86 S5        29.97R

$$

LMZ046-743>745-211400-
SOUTHERN LAKE MICHIGAN

STATION/POSITION TIME  TEMP    WIND        PRES    WAVE
                       AIR SEA DIR/SP/G            HT
                 (UTC) (F)     (DEG/KT/KT) (MB)    (FT)
BURNS HARBOR     1302   54     180/  9/ 15 1014.6
MICHIGAN CITY    1240   54     130/ 11/ 13   N/A

$$

INZ004-005-014>016-021>024-211400-
NORTH CENTRAL INDIANA

CITY           SKY/WX    TMP DP  RH WIND       PRES   REMARKS
ELKHART        CLOUDY    50  46  87 S3        29.97R
GOSHEN         CLOUDY    53  42  66 SW8       29.97R
LOGANSPORT +   DRIZZLE   50  46  87 S3        29.98R
PERU/GRISSOM   CLOUDY    53  47  79 S6        29.96R
ROCHESTER +    CLOUDY    55  46  71 CALM      29.97S
SOUTH BEND     LGT RAIN  52  48  86 SW9       29.97S
WARSAW +       CLOUDY    52  43  71 CALM      29.97S

$$

INZ006>009-017-018-025>027-211400-
NORTHEAST INDIANA

CITY           SKY/WX    TMP DP  RH WIND       PRES   REMARKS
ANGOLA *+      MOCLDY    45  41  87 CALM      29.97S
AUBURN +       CLOUDY    46  39  76 CALM      29.98S
FORT WAYNE     CLOUDY    49  42  77 S7        29.98S
HUNTINGTON +   CLOUDY    51  42  72 SW3       29.98R
KENDALLVILLE + CLOUDY    48  41  77 S5        29.97S

$$

INZ028-029-035-036-043>045-051>053-211400-
WEST CENTRAL INDIANA

CITY           SKY/WX    TMP DP  RH WIND       PRES   REMARKS
GREENCASTLE +  CLOUDY    50  45  81 CALM      29.98S
LAFAYETTE      CLOUDY    52  47  83 CALM      29.97R
TERRE HAUTE    CLOUDY    52  45  77 SE3       29.97F

$$

INZ030>032-037>040-046>048-054>057-064-065-211400-
CENTRAL INDIANA

CITY           SKY/WX    TMP DP  RH WIND       PRES   REMARKS
COLUMBUS       MOCLDY    46  45  93 CALM      30.01R
FRANKFORT +    MOCLDY    54  48  79 S5        29.99R
GREENWOOD *+   MOCLDY    52  46  77 CALM      30.00F
INDIANAPOLIS   CLOUDY    52  44  74 SE8       29.98R
-EAGLE CREEK   CLOUDY    53  44  71 S5        29.98R
KOKOMO +       CLOUDY    52  45  77 S7        29.98S
MARION +       CLOUDY    50  42  75 S5        29.99S
MT COMFORT *+  CLOUDY    50  43  76 S8        30.00R
SHELBYVILLE    MOCLDY    52  42  69 SE6       30.00R
ZIONSVILLE +   MOCLDY    51  45  79 S3        29.99R

$$

INZ033-034-041-042-049-050-058-059-211400-
EAST CENTRAL INDIANA

CITY           SKY/WX    TMP DP  RH WIND       PRES   REMARKS
MUNCIE         CLOUDY    54  42  64 S8        29.99R

$$

INZ060-061-067>069-081>083-085>088-211400-
SOUTHWEST INDIANA

CITY           SKY/WX    TMP DP  RH WIND       PRES   REMARKS
EVANSVILLE     MOCLDY    56  46  69 CALM      29.98R
HUNTINGBURG *+ CLOUDY    55  46  71 SE6       29.99R
WASHINGTON +   MOCLDY    54  44  70 S7        29.97S

$$

INZ062-063-066-070>080-084-089>092-211400-
SOUTH CENTRAL AND SOUTHEAST INDIANA

CITY           SKY/WX    TMP DP  RH WIND       PRES   REMARKS
BLOOMINGTON    CLOUDY    53  44  71 SE6       29.99R
MADISON *+     MOCLDY    52  41  66 SE3       30.04S
NORTH VERNON + MOCLDY    54  43  66 SE5       30.02R
SEYMOUR +      CLOUDY    50  43  76 SE5       30.01R

$$





USA.gov is the U.S. government's official web portal to all federal, state and local government web resources and services.